Terminal Aerodrome Forecast
Issued by NWS Houston/Galveston, TX

Home | Current Version | Previous Version | Text Only | Print | Product List | Glossary On
Versions: 1 2 3 4 5 6 7 8 9 10 11 12 13 14 15 16 17 18 19 20 21 22 23 24 25 26 27 28 29 30 31 32 33 34 35 36 37 38 39 40 41 42 43 44 45 46 47 48 49 50
000
FTUS44 KHGX 281727
TAFCLL
TAF
KCLL 281727Z 2818/2918 16009KT P6SM FEW027 SCT035 BKN045
     FM282000 15011KT P6SM VCTS SCT035CB
     FM290300 15009KT P6SM FEW015 BKN250
     FM291000 16005KT P6SM SCT012 BKN025 BKN250
     FM291500 15008KT P6SM SCT030 BKN250=

USA.gov is the U.S. government's official web portal to all federal, state and local government web resources and services.